Simultaneous Nadir Overpasses (SNOs) Predictions

Prediction of SNOs between AURA and NPP Satellite Orbit:

Table of predicted SNOs for the next 14.0 days since TLE Epoch: 12/3/2022
Index Date (AURA) Time (AURA) Lat,Lon (AURA) SZA (AURA ) Date (NPP) Time (NPP) Lat,Lon (NPP) SZA (NPP ) Distance(km) Time Diff (sec)
1 12/03/2022 11:26:03 -79.31, 84.35 66.12 12/03/2022 11:25:19 -79.31, 84.36 66.09 0.27 44
2 12/03/2022 12:15:24 79.50,-106.70 113.63 12/03/2022 12:15:58 79.50,-106.83 113.63 2.71 34
3 12/06/2022 03:42:34 -79.39,-159.28 65.83 12/06/2022 03:42:16 -79.39,-159.24 65.83 0.88 18
4 12/06/2022 04:31:54 79.61, 9.94 113.87 12/06/2022 04:32:54 79.61, 9.86 113.84 1.80 60
5 12/08/2022 19:09:43 79.24, 148.00 114.70 12/08/2022 19:08:34 79.25, 148.11 114.73 2.47 69
6 12/08/2022 19:59:05 -79.44, -43.03 65.57 12/08/2022 19:59:14 -79.43, -43.12 65.56 2.11 9
7 12/11/2022 11:26:12 79.35, -95.39 114.85 12/11/2022 11:25:30 79.36, -95.30 114.86 2.05 42
8 12/11/2022 12:15:35 -79.52, 73.36 65.38 12/11/2022 12:16:11 -79.51, 73.24 65.38 2.47 36
9 12/14/2022 03:42:42 79.37, 20.58 115.07 12/14/2022 03:42:28 79.36, 20.49 115.10 2.18 14
10 12/14/2022 04:32:02 -79.64,-169.85 65.31 12/14/2022 04:33:05 -79.64,-169.86 65.36 0.26 63
11 12/16/2022 19:09:52 -79.18, -32.40 64.50 12/16/2022 19:08:48 -79.18, -32.45 64.44 1.13 64



Historial Predications of SNOs between AURA and NPP
